Regional Weather Roundup
Issued by NWS

Home | Current Version | Previous Version | Graphics & Text | Print | Product List | Glossary On
Versions: 1 2 3 4 5 6 7 8 9 10 11 12 13 14 15 16 17 18 19 20 21 22 23 24 25 26 27 28 29 30 31 32 33 34 35 36 37 38 39 40 41 42 43 44 45 46 47 48 49 50
000
ASUS43 KFSD 271602
RWRSD

WEATHER ROUNDUP FOR SOUTH DAKOTA
NATIONAL WEATHER SERVICE SIOUX FALLS SD
1100 AM CDT FRI MAR 27 2015

NOTE: "FAIR" INDICATES FEW OR NO CLOUDS BELOW 12,000 FEET WITH NO
SIGNIFICANT WEATHER AND/OR OBSTRUCTIONS TO VISIBILITY.


SDZ001>005-009-010-012>017-271700-
NORTHWEST AND NORTH CENTRAL SOUTH DAKOTA

CITY           SKY/WX    TMP DP  RH WIND       PRES   REMARKS
BUFFALO          N/A     45  38  76 W8        29.91S
FAITH            N/A     36  29  75 S14       30.00R
MOBRIDGE       LGT SNOW  28  24  85 S14       30.07F FOG     WCI  17
$$

SDZ012>016-024>037-041>051-057-063-072>074-271700-
SOUTHWEST AND SOUTH CENTRAL SOUTH DAKOTA

CITY           SKY/WX    TMP DP  RH WIND       PRES   REMARKS
RAPID CTY ARPT SUNNY     45  35  68 VRB3      29.99F
PIERRE         LGT SNOW  30  25  81 SE14      30.10F WCI  19
CUSTER         MOSUNNY   50  34  54 W14G25    30.05S
ELLSWORTH AFB  MOSUNNY   48  37  64 VRB5      29.98F
PHILIP         PTSUNNY   44  31  60 S10       30.01F
PINE RIDGE     PTSUNNY   49  39  68 W9        30.05S
SPEARFISH      FAIR      55  37  50 W21G30    30.03S
WINNER         CLOUDY    35  27  72 S16       30.11F WCI  25
$$

SDZ004>011-016>023-039-040-271700-
NORTHEAST SOUTH DAKOTA

CITY           SKY/WX    TMP DP  RH WIND       PRES   REMARKS
ABERDEEN       CLOUDY    29  14  53 S14       30.19F WCI  18
WATERTOWN      CLOUDY    26  12  55 SW9       30.18F WCI  17
SISSETON         N/A     29  14  53 SW10      30.21F WCI  20
$$

SDZ017-020-022-023-036>040-048>070-271700-
SOUTHEAST SOUTH DAKOTA

CITY           SKY/WX    TMP DP  RH WIND       PRES   REMARKS
SIOUX FALLS    CLOUDY    28   9  44 S7        30.24F WCI  21
HURON          CLOUDY    29  13  51 S8        30.21F WCI  21
MITCHELL       CLOUDY   N/A N/A N/A MISG      30.23F
YANKTON        CLOUDY    28  10  47 S6        30.27F WCI  22
$$

ABBREVIATIONS USED IN REMARKS
   TC - TEMPERATURE IN CELSIUS
  WCI - WIND CHILL INDEX
   HX - HEAT INDEX
  VSB - VISIBILITY




USA.gov is the U.S. government's official web portal to all federal, state and local government web resources and services.